Theta_e
316 318 317 315 313 311 310 308 307 305 303 302 302 302 302 302 303 303 305 308 313 316 315 312 311 311 312 318 326 325 319 320 321 323 325 324 324 325 327 329 329 330 331 331 325
314 315 317 318 315 313 312 310 309 307 306 304 303 302 303 302 302 303 303 304 306 312 317 315 313 315 316 317 326 322 318 319 318 319 320 322 324 324 325 328 331 331 331 330 325
312 312 314 315 318 316 314 312 310 309 308 306 304 304 303 302 302 302 303 303 304 307 312 317 316 319 318 321 323 319 319 317 319 322 322 323 323 323 323 322 326 329 330 329 326
311 312 313 313 315 318 317 314 311 310 308 308 306 305 304 303 302 308 306 304 303 305 310 314 316 321 319 318 321 323 321 319 320 322 323 322 324 323 323 324 325 326 328 329 329
310 310 311 312 313 316 318 318 313 311 310 309 307 305 306 305 302 307 307 305 306 305 308 315 317 321 319 318 319 320 320 321 321 322 322 322 322 323 323 324 324 325 328 329 330
310 309 310 311 312 314 316 317 317 312 310 310 308 306 307 306 303 302 307 306 304 306 307 314 317 320 320 319 316 318 318 319 320 321 321 321 321 322 322 323 323 323 329 330 330
308 309 309 309 310 312 314 315 317 316 311 310 309 308 309 305 304 304 305 305 305 303 308 316 321 320 320 319 320 320 320 317 318 319 319 320 320 320 321 321 322 322 321 325 329
307 307 309 308 309 310 311 314 315 317 314 311 309 309 310 309 305 306 308 306 306 305 308 318 321 320 320 319 319 319 318 319 316 317 319 319 317 316 321 322 321 320 319 318 319
306 307 308 307 307 308 309 312 314 315 316 312 310 309 310 310 310 306 306 307 309 308 312 318 318 319 319 316 316 316 317 318 317 315 315 318 318 316 318 318 318 318 317 316 318
304 305 307 307 307 308 309 310 313 313 315 313 310 310 309 310 310 307 307 309 315 314 314 316 317 315 314 315 317 315 317 313 315 312 312 313 316 315 317 317 317 317 318 318 317
304 304 305 305 306 307 308 309 311 311 313 313 311 311 310 310 310 308 310 313 315 315 313 316 317 318 317 317 313 313 315 313 311 311 311 310 310 311 313 316 316 316 317 317 316
305 304 304 305 305 306 307 308 311 312 313 314 312 311 310 310 309 309 309 311 314 314 314 316 317 314 314 315 314 314 314 313 312 311 313 311 310 309 310 312 315 316 317 318 317
302 303 304 305 305 306 306 307 309 312 312 313 312 310 310 310 309 309 308 309 312 313 314 313 311 314 314 315 317 317 314 314 313 311 311 309 309 309 309 309 312 313 314 313 314
302 302 304 304 303 305 307 306 308 311 311 311 311 311 310 310 309 309 308 309 312 313 312 313 309 313 314 315 315 317 314 314 314 314 314 309 311 308 308 307 306 309 310 311 312
300 301 304 303 303 305 306 307 307 309 312 310 310 311 310 310 310 309 308 310 311 310 312 310 310 311 314 314 314 315 314 314 313 312 312 311 312 309 307 307 308 309 309 310 312
300 302 303 303 302 306 306 307 308 310 312 310 311 311 311 310 310 309 309 310 311 310 310 308 309 309 311 311 313 312 310 311 310 311 312 311 311 308 307 307 305 305 308 309 312
300 301 303 302 302 305 306 306 307 310 307 309 311 311 311 311 311 310 309 309 310 311 311 309 309 308 311 311 310 310 311 307 312 314 311 308 311 309 307 305 303 304 309 310 311
301 301 301 302 301 303 305 305 306 305 304 307 308 311 311 311 311 311 310 310 308 307 307 310 311 309 308 309 311 313 313 310 309 311 309 307 311 308 307 308 308 308 308 310 313
301 302 302 302 301 302 302 304 305 302 304 307 309 311 311 310 311 311 310 310 309 307 307 306 307 307 308 309 309 310 313 308 306 296 304 306 306 304 306 304 305 307 308 309 312
301 302 302 301 301 302 302 304 300 301 303 305 308 309 312 310 311 311 310 309 309 307 306 307 308 307 308 310 309 311 310 311 304 302 305 305 305 305 305 305 304 306 307 309 312
301 301 300 300 300 299 302 300 297 300 303 305 307 308 307 310 310 310 310 309 308 307 307 305 305 304 306 309 311 310 311 310 309 306 306 303 302 301 306 305 304 305 309 310 313
301 301 301 300 299 299 297 293 297 298 300 299 301 307 306 308 311 311 310 309 308 307 307 306 306 307 307 306 309 310 309 311 311 309 307 306 305 302 301 302 304 306 310 311 312
301 300 300 299 300 299 285 289 296 297 299 299 299 302 305 308 309 310 310 309 308 307 308 307 307 309 307 308 307 309 310 310 309 305 309 308 308 302 302 303 304 304 308 311 310
300 300 300 300 299 295 288 289 293 297 298 299 298 301 303 304 306 307 309 307 308 308 308 308 308 309 310 309 308 310 311 311 311 311 310 309 308 305 305 304 305 306 305 309 308
299 300 300 300 300 296 294 291 295 296 297 299 299 299 300 302 305 305 305 307 307 307 308 308 310 308 308 307 308 308 310 311 311 311 311 309 307 307 302 302 303 306 307 308 308
297 300 299 299 300 295 295 292 295 295 297 296 298 300 300 301 301 299 304 306 308 306 308 308 309 308 309 307 305 307 308 310 311 311 311 310 309 308 306 307 304 306 306 307 308
300 300 300 300 300 297 296 294 296 296 297 297 298 298 300 301 300 302 303 303 305 306 307 308 308 309 310 308 307 307 308 308 309 310 311 311 311 310 307 304 305 305 307 308 308
Wind_Speed
25 22 24 21 19 17 16 16 14 13 13 13 13 12 11 13 14 16 18 18 18 19 11 7 5 5 6 7 6 6 4 4 6 7 4 2 2 3 2 8 6 7 5 3 17
32 28 23 25 23 20 17 16 15 15 14 13 12 11 11 10 12 17 13 14 17 16 12 12 5 3 4 5 6 5 4 8 5 5 3 1 4 3 3 5 3 6 7 10 18
30 33 29 24 24 24 21 17 15 15 14 13 13 11 9 9 11 8 11 17 15 14 14 9 6 4 4 4 5 6 6 5 3 2 1 1 3 5 5 3 9 12 11 18 19
30 28 31 30 27 24 24 20 17 16 14 13 13 12 9 6 5 2 4 9 15 15 13 11 7 4 3 4 4 2 6 5 4 3 1 2 2 2 8 4 3 6 12 18 21
32 31 28 32 30 25 24 24 20 17 15 13 12 12 10 9 10 3 2 2 7 15 16 12 10 5 4 3 2 3 3 5 7 4 4 6 8 5 7 8 4 5 13 16 19
30 36 33 28 28 29 25 22 23 20 16 14 13 12 13 7 9 11 8 4 2 12 17 16 8 7 5 2 5 3 4 5 5 8 5 3 5 4 9 10 6 2 12 17 19
35 31 33 35 28 28 29 24 21 22 19 16 14 14 16 20 8 13 13 11 5 6 17 17 9 7 5 2 4 1 2 5 4 4 5 3 6 7 23 13 13 13 12 14 19
38 34 33 35 33 28 26 27 22 22 22 18 15 15 10 14 17 12 11 12 10 8 16 17 10 5 3 2 3 3 2 1 3 6 6 8 9 9 21 20 20 21 19 19 22
40 36 33 31 36 33 28 24 24 21 24 20 18 15 8 10 19 19 12 11 11 11 16 12 7 4 4 5 2 2 4 7 7 6 3 7 4 11 21 22 24 29 30 28 26
41 38 34 33 31 30 26 25 19 22 23 24 18 10 14 9 11 24 18 12 10 13 10 8 8 3 2 4 6 7 5 4 4 2 2 4 8 10 12 10 18 23 22 25 28
37 43 39 35 35 31 25 24 16 14 28 10 19 9 4 16 10 20 20 14 8 13 6 7 6 15 13 14 2 4 3 4 3 5 5 8 8 14 20 21 27 28 31 32 34
35 38 38 33 36 35 31 33 29 8 9 33 15 33 11 13 8 14 21 11 7 6 6 3 18 8 7 4 6 3 4 5 4 2 3 6 9 11 9 11 25 32 39 43 39
37 38 36 33 31 33 41 43 32 27 6 17 18 27 12 19 14 22 30 15 4 5 10 5 0 15 8 5 8 9 6 2 2 5 2 5 7 9 7 14 29 38 44 42 44
44 41 37 31 30 33 40 42 37 24 6 10 10 18 17 15 6 16 32 20 6 12 4 8 3 9 4 13 10 14 8 6 3 2 4 3 7 6 6 9 8 30 32 34 32
44 41 40 38 34 33 39 38 36 24 15 8 14 13 24 18 14 17 33 21 9 8 8 8 9 8 16 12 12 5 7 9 5 2 3 1 3 6 3 7 16 23 31 32 28
37 39 42 38 32 30 35 36 34 12 14 9 14 17 13 21 11 15 27 11 9 5 2 5 2 6 6 4 14 5 5 5 4 3 5 8 6 5 5 8 5 9 21 20 17
39 41 48 42 36 32 36 30 13 19 5 9 12 16 25 20 17 13 17 13 9 9 15 3 10 3 13 6 4 5 7 2 1 3 6 1 7 15 12 12 7 11 12 10 11
38 40 40 40 41 39 34 12 17 24 13 1 10 20 26 19 17 17 20 17 18 7 5 12 7 14 6 7 7 19 12 6 9 6 3 4 8 6 12 21 21 27 23 12 8
37 41 41 38 43 37 27 13 16 5 18 9 11 15 19 21 10 16 19 25 23 17 10 7 7 4 4 6 12 6 13 8 6 2 2 5 7 9 13 13 19 21 21 18 14
43 41 38 46 41 37 16 24 6 3 4 21 15 9 18 25 18 20 20 21 15 24 2 6 2 5 16 2 6 11 13 5 1 5 5 5 5 7 4 12 7 6 15 21 21
44 25 28 46 42 19 13 7 4 4 3 9 24 18 12 10 20 10 10 9 27 22 18 6 5 4 10 13 17 6 10 5 6 5 5 2 6 9 18 13 11 12 20 25 31
38 8 40 50 10 4 6 7 10 6 4 4 1 13 9 13 19 19 20 16 32 24 25 11 5 4 11 4 7 22 21 24 8 8 6 1 8 4 9 8 10 16 23 25 29
32 7 52 55 12 7 1 5 7 6 7 8 7 4 5 5 8 16 12 18 25 21 19 14 6 5 2 3 4 8 16 13 13 2 12 6 12 1 3 5 14 21 26 31 31
21 6 19 33 15 9 7 8 8 10 7 7 6 7 3 7 5 6 13 7 23 34 30 27 14 17 18 18 9 12 17 21 20 13 19 15 26 6 3 5 7 13 25 31 30
13 6 13 16 18 18 15 13 15 7 5 14 1 7 10 3 12 4 2 2 8 28 20 8 12 20 25 17 13 17 22 25 23 28 20 29 22 25 8 8 10 7 22 30 29
10 12 16 13 24 12 19 12 24 10 15 10 11 19 18 15 10 8 6 7 7 6 15 18 7 15 23 21 11 10 19 22 24 28 29 25 20 25 16 24 10 14 19 23 28
15 27 30 17 18 17 23 22 22 16 9 16 23 3 11 18 29 23 6 6 1 4 14 12 9 5 21 23 19 10 18 23 26 25 24 24 33 32 19 15 22 21 24 30 28
Wind_Direction
246 244 240 237 240 242 245 245 244 249 253 258 259 259 260 255 252 250 248 244 244 250 255 251 277 217 208 180 154 145 74 200 208 166 223 195 135 196 190 153 180 183 178 201 182
250 244 244 239 236 238 240 245 246 246 250 253 258 261 269 271 264 253 247 241 237 241 247 246 246 195 182 183 170 134 146 218 203 191 193 282 198 187 177 156 193 195 190 178 183
243 243 242 241 241 235 235 237 242 245 249 250 254 258 262 277 288 262 235 232 228 227 233 233 221 196 173 178 192 171 189 182 175 131 4 227 220 174 191 237 213 209 186 174 185
245 240 241 241 243 235 234 233 236 242 245 248 250 251 255 242 232 236 220 218 218 212 217 216 214 179 165 196 195 183 241 182 156 145 139 272 253 222 199 221 184 208 216 193 193
244 243 241 239 238 238 234 231 230 235 240 244 246 245 240 232 238 217 192 160 202 207 206 200 204 177 179 207 198 197 250 191 193 213 247 269 257 261 238 206 261 217 194 205 207
236 240 241 236 239 235 235 231 227 228 232 236 238 233 226 227 246 230 222 213 81 202 197 195 211 198 195 222 185 217 251 277 236 244 241 216 255 199 262 237 203 213 210 213 217
241 232 238 241 239 236 233 232 229 224 224 229 231 229 236 240 245 230 219 232 238 208 195 191 179 190 190 164 215 231 305 342 239 211 228 190 268 216 241 226 248 255 246 232 235
240 239 234 239 237 234 233 231 228 228 220 220 223 225 246 257 224 226 230 218 222 199 193 199 203 187 195 153 61 125 48 81 296 174 238 158 257 239 237 250 255 258 255 252 246
236 238 234 234 235 236 236 232 227 227 218 211 207 206 245 247 233 215 218 210 207 194 194 193 188 187 158 111 34 337 216 221 313 215 162 185 265 264 253 247 254 259 264 257 253
231 236 232 227 229 231 232 229 230 226 234 196 207 190 239 226 229 207 206 197 190 194 195 198 197 149 118 145 201 203 206 216 205 233 185 238 256 265 264 257 251 262 255 255 256
236 234 238 235 226 224 220 212 221 225 213 205 180 174 210 215 217 196 185 180 159 177 171 183 189 208 191 200 158 141 177 193 235 260 204 242 246 258 259 259 266 263 263 261 261
236 234 235 233 227 220 220 212 210 205 213 229 214 197 195 188 167 194 185 180 177 179 146 150 224 205 175 216 198 158 189 215 267 295 199 286 265 262 245 240 251 260 260 260 264
234 239 232 229 223 220 218 220 213 215 243 202 206 194 186 192 198 199 193 190 167 169 194 192 211 186 176 182 208 226 208 193 236 329 318 321 278 245 245 240 253 256 259 261 264
235 231 232 218 222 220 217 217 214 217 222 204 200 210 200 184 255 205 192 176 186 196 115 254 244 178 165 216 194 237 185 199 274 344 246 4 291 266 267 268 241 259 260 262 261
232 229 221 216 215 218 217 211 209 209 225 193 169 187 183 177 150 193 189 183 173 168 160 216 184 178 208 209 178 230 156 194 183 217 345 105 303 275 298 275 262 261 263 263 259
226 220 214 210 210 216 202 204 198 213 220 175 147 170 153 196 194 147 177 180 175 165 302 211 243 189 192 155 183 159 87 68 67 125 267 199 178 250 209 227 258 272 282 274 275
226 222 205 206 196 195 192 182 211 214 131 178 174 169 184 193 185 170 176 188 166 180 216 200 237 240 164 146 149 171 140 36 267 218 237 174 197 254 278 251 239 274 315 306 249
218 217 219 204 199 194 173 192 229 210 182 178 160 182 187 177 193 183 174 190 213 191 154 198 219 203 192 186 174 199 176 162 192 200 229 148 230 249 245 277 264 264 266 311 183
210 211 205 198 197 199 201 220 209 155 196 152 165 185 200 202 169 179 187 196 197 189 183 169 247 143 176 164 156 189 217 168 104 19 64 215 285 298 263 270 270 262 260 251 204
200 196 197 196 195 182 197 227 165 192 299 192 195 186 196 189 195 195 187 198 202 202 204 195 317 188 193 171 237 185 172 188 123 148 237 253 267 235 285 251 260 245 223 216 194
189 192 192 188 181 182 210 189 170 167 121 181 215 206 214 188 204 187 187 208 206 189 197 153 155 283 151 204 184 152 199 191 164 179 185 241 253 212 220 221 219 216 216 195 185
178 185 184 184 180 194 160 171 158 153 133 128 27 222 201 190 206 203 207 199 199 174 199 193 147 179 207 165 214 207 204 200 190 217 232 113 261 222 224 238 228 224 211 201 185
172 140 167 176 187 172 5 168 168 135 169 162 171 215 209 210 212 202 215 232 192 185 192 180 202 196 358 350 237 206 214 209 213 67 211 189 256 336 245 240 242 234 217 198 186
163 151 164 180 184 166 150 199 185 197 161 150 165 130 211 232 231 180 213 188 203 207 198 174 211 212 223 222 154 196 204 209 208 220 232 220 250 235 237 239 264 250 221 191 181
159 159 176 172 199 188 172 164 181 168 192 162 79 175 181 268 232 221 151 200 246 207 204 199 219 218 231 235 182 206 212 209 210 221 220 234 233 251 217 229 248 200 173 173 184
137 145 171 181 174 167 179 192 185 178 163 202 195 196 190 203 210 196 144 182 209 218 223 212 244 214 235 236 215 221 213 218 219 227 229 243 249 252 226 241 235 201 184 190 197
154 166 164 160 177 182 203 179 194 176 214 194 210 129 199 213 212 227 191 335 192 154 209 211 228 204 222 227 232 239 221 214 219 229 224 231 238 246 234 220 222 218 211 212 218